Hourly Data Report for September 10, 2017

All times are specified in Local Standard Time (LST). Add 1 hour to adjust for Daylight Saving Time where and when it is observed.

BAS CARAQUET
NEW BRUNSWICK

47°48'08.000" N
64°50'00.000" W
5.00 m
8100467
71598
WXS

Download Data

Hourly Data (September 2017)
Hourly Data Report for September 10, 2017
Temp Definition
°C
Dew Point Temp Definition
°C
Rel Hum Definition
%
Wind Dir Definition
10's deg

Wind Spd Definition
km/h
Visibility Definition
km
Stn Press Definition
kPa
Hmdx Definition


Wind Chill Definition


Weather Definition


TIME
00:00 11.5 11.3 99 35 6   102.43     LegendNANA
01:00 11.5 11.2 98 1 3   102.43     LegendNANA
02:00 9.4 9.1 98   0   102.41     LegendNANA
03:00 8.4 8.2 99 30 4   102.40     LegendNANA
04:00 8.7 8.5 99 28 6   102.39     LegendNANA
05:00 10.4 10.2 99 29 8   102.41     LegendNANA
06:00 8.5 8.2 98 20 4   102.44     LegendNANA
07:00 11.5 11.3 99 30 7   102.45     LegendNANA
08:00 13.1 12.3 95 31 8   102.44     LegendNANA
09:00 14.1 12.0 87 32 8   102.44     LegendNANA
10:00 15.6 12.6 82 30 8   102.40     LegendNANA
11:00 16.6 12.6 77 31 11   102.34     LegendNANA
12:00 18.2 12.8 71 29 13   102.30     LegendNANA
13:00 16.2 11.8 75 29 17   102.26     LegendNANA
14:00 17.2 11.2 68 28 16   102.19     LegendNANA
15:00 16.2 11.5 74 28 14   102.10     LegendNANA
16:00 15.1 11.8 80 28 14   102.06     LegendNANA
17:00 14.8 11.3 80 28 13   102.05     LegendNANA
18:00 14.4 11.3 82 28 8   102.01     LegendNANA
19:00 14.1 10.6 80 28 14   102.01     LegendNANA
20:00 13.7 9.6 76 28 11   101.98     LegendNANA
21:00 13.8 9.5 76 27 11   101.96     LegendNANA
22:00 13.6 10.5 82 27 12   101.91     LegendNANA
23:00 13.0 11.3 90 27 9   101.85     LegendNANA

Notes on Data Quality.

Legend

  • E = Estimated
  • M = Missing
  • NA = Not Available
  • ‡ = Partner data that is not subject to review by the National Climate Archives
Date modified: